Location: Newark
(39.8500°N, 99.5772°W)
Time: 22:42:26
(UTC+00:00)

ISS - Visible Passes

Search period start: 18 July 2019 00:00
Search period end: 28 July 2019 00:00
Orbit: 409 x 418 km, 51.6° (Epoch: 19 July)

Date Brightness Start Highest point End Pass type
(mag) Time Alt. Az. Time Alt. Az. Time Alt. Az.
18 Jul -2.6 04:00:49 10° WSW 04:04:01 44° NNW 04:07:14 10° NE visible
18 Jul -0.4 05:39:36 10° NW 05:41:23 14° NNW 05:43:09 10° NNE visible
18 Jul -0.2 07:17:54 10° NNW 07:19:12 12° N 07:20:30 10° NNE visible
18 Jul -1.6 08:53:48 10° NW 08:56:45 28° NNE 08:59:40 10° E visible
18 Jul -3.2 10:30:24 10° WNW 10:33:28 35° SW 10:36:30 10° SSE visible
19 Jul -3.6 03:11:23 10° WSW 03:14:43 76° NW 03:18:04 10° NE visible
19 Jul -0.7 04:49:36 10° WNW 04:51:51 17° NNW 04:54:07 10° NNE visible
19 Jul -0.2 06:28:38 10° NNW 06:29:37 11° N 06:30:37 10° NNE visible
19 Jul -1.1 08:04:44 10° NNW 08:07:18 20° NNE 08:09:53 10° ENE visible
19 Jul -3.9 09:40:58 10° WNW 09:44:16 68° SW 09:47:32 10° SE visible
20 Jul -1.1 03:59:41 10° WNW 04:02:22 22° NNW 04:05:04 10° NNE visible
20 Jul -0.3 05:38:58 10° NNW 05:40:02 11° N 05:41:05 10° NNE visible
20 Jul -0.7 07:15:41 10° NNW 07:17:49 16° NNE 07:18:35 15° NE visible
20 Jul-0.608:59:59ESE08:59:59ESE08:51:10NWvisible
21 Jul -1.7 03:09:54 10° W 03:12:56 31° NNW 03:15:58 10° NE visible
21 Jul -0.4 04:48:59 10° NW 04:50:25 12° N 04:51:51 10° NNE visible
21 Jul -0.5 06:26:37 10° NNW 06:28:16 13° NNE 06:29:01 12° NNE visible
22 Jul -0.6 03:58:56 10° NW 04:00:51 14° NNW 04:02:46 10° NNE visible
22 Jul -0.5 05:37:27 10° NNW 05:38:40 11° N 05:39:52 10° NNE visible
23 Jul -0.8 03:08:54 10° WNW 03:11:17 18° NNW 03:13:40 10° NNE visible
23 Jul -0.5 04:48:02 10° NNW 04:49:02 11° N 04:50:01 10° NNE visible
23 Jul -0.6 06:24:17 10° NNW 06:25:12 14° NNW 06:25:12 14° NNW visible
24 Jul -0.5 03:58:14 10° NNW 03:59:23 11° N 04:00:32 10° NNE visible
24 Jul -0.8 05:35:11 10° NNW 05:37:11 15° NNE 05:37:12 15° NNE visible
25 Jul -0.7 03:08:10 10° NW 03:09:44 13° N 03:11:19 10° NNE visible
25 Jul -0.7 04:46:02 10° NNW 04:47:35 13° N 04:49:06 10° NE visible
25 Jul -0.4 06:21:57 10° NW 06:22:05 11° NW 06:22:05 11° NW visible
26 Jul -0.7 03:56:47 10° NNW 03:57:55 11° N 03:59:03 10° NNE visible
26 Jul -0.9 05:32:47 10° NNW 05:34:11 18° N 05:34:11 18° N visible
27 Jul -0.7 03:07:14 10° NNW 03:08:15 11° N 03:09:15 10° NNE visible
27 Jul -1.3 04:43:38 10° NNW 04:45:59 18° NNE 04:46:19 17° NNE visible
